Regional Weather Roundup
Issued by NWS

Home | Current Version | Previous Version | Text Only | Print | Product List | Glossary Off
Versions: 1 2 3 4 5 6 7 8 9 10 11 12 13 14 15 16 17 18 19 20 21 22 23 24 25 26 27 28 29

000
ASUS45 KSLC 291910
RWRUT

UTAH REGIONAL WEATHER ROUNDUP
NATIONAL WEATHER SERVICE SALT LAKE CITY UT
100 PM MDT WED OCT 29 2014

UTZ001>011-023>025-292000-

NORTHERN UTAH

CITY           SKY/WX    TMP DP  RH WIND       PRES   REMARKS
BRIGHAM CITY   SUNNY     55  20  25 CALM      30.31F
HILL AFB       SUNNY     58  21  23 S6        30.31F
LOGAN          MOSUNNY   52  26  36 CALM      30.30S
OGDEN          MOSUNNY   60  20  21 CALM      30.30F
PROVO AIRPORT  MOSUNNY   54  28  37 VRB5      30.31F
SALT LAKE CITY MOSUNNY   60  17  18 SW3       30.29F
VERNAL         SUNNY     50  20  30 VRB3      30.32F
WENDOVER       SUNNY     50  25  37 E6        30.31F
HEBER CITY     SUNNY     54  18  24 CALM      30.31F
WEST JORDAN    SUNNY     61  28  29 SE9G16    30.30F

$$

UTZ012>022-026-027-292000-

SOUTHERN/CENTRAL UTAH

CITY           SKY/WX    TMP DP  RH WIND       PRES   REMARKS
BLANDING       SUNNY     58  14  17 S3        30.40F
BRYCE CANYON   SUNNY     61  16  17 NE6       30.40F
CEDAR CITY     SUNNY     62  17  17 CALM      30.30F
DELTA          SUNNY     57  16  20 CALM      30.31F
HANKSVILLE       N/A     59  14  17 CALM      30.33F
MILFORD        SUNNY     59  22  24 SW5       30.30F
MOAB/CYNLANDS  SUNNY     60  13  15 CALM      30.29F
PRICE          SUNNY     56   7  14 SE5       30.33F
ST GEORGE      CLEAR     63  19  19 CALM      30.24F
KANAB            N/A     70  21  16 CALM      30.31F

$$

REGIONAL REPORTS     COLORADO/ARIZONA

CITY           SKY/WX    TMP DP  RH WIND       PRES   REMARKS
CRAIG, CO      SUNNY     55  20  25 VRB3      30.30F
GRAND JUNCTION SUNNY     56  13  18 SE3       30.31F
RIFLE          SUNNY     53  12  19 CALM      30.32F
MONTROSE       SUNNY     57  16  20 N5        30.33F
CORTEZ         SUNNY     63  15  15 VRB7      30.32F
PAGE, AZ       SUNNY     63  23  21 N3        30.29F
GRAND CANYON   SUNNY     68  23  18 CALM      30.35F
KINGMAN        SUNNY     75  25  15 N12       30.18F
FLAGSTAFF      SUNNY     63  27  25 S3        30.36F

$$

REGIONAL REPORTS    NEVADA/IDAHO/WYOMING

CITY           SKY/WX    TMP DP  RH WIND       PRES   REMARKS
LAS VEGAS, NV  SUNNY     75  17  11 S7        30.13F
ELY            SUNNY     64  23  21 NE6       30.33F
ELKO           SUNNY     59  23  25 SW7       30.30F
POCATELLO, ID  PTSUNNY   59  29  31 SW12G20   30.26R
BURLEY         CLOUDY    59  32  36 W7        30.24S
EVANSTON, WY   MOSUNNY   54  25  32 W18G25    30.32F
ROCK SPRINGS   SUNNY     53  15  22 W23G35    30.28F
KEMMERER       SUNNY     52  21  30 W23G29    30.31F

$$



USA.gov is the U.S. government's official web portal to all federal, state and local government web resources and services.